| time (UTC) | temp C | wind direction | speed KPH | gust KPH | rain 1hr cm | rain 24hr cm | rain mn cm | humidity % | barometer mb |
| 20260906105529 | 22 | 58 | 1.6 | 9.7 | 0.00 | 0.08 | 0.00 | 92 | 1012.7 |
| 20260906105028 | 22 | 49 | 0.0 | 9.7 | 0.00 | 0.08 | 0.00 | 91 | 1012.7 |
| 20260906104553 | 22 | 40 | 0.0 | 8.0 | 0.00 | 0.08 | 0.00 | 91 | 1012.6 |
| 20260906104030 | 22 | 89 | 1.6 | 8.0 | 0.00 | 0.08 | 0.00 | 91 | 1012.6 |
| 20260906103529 | 22 | 0 | 0.0 | 9.7 | 0.00 | 0.08 | 0.00 | 91 | 1012.7 |
| 20260906103050 | 22 | 0 | 1.6 | 9.7 | 0.00 | 0.08 | 0.00 | 91 | 1012.6 |
| 20260906102528 | 22 | 47 | 0.0 | 6.4 | 0.00 | 0.08 | 0.00 | 90 | 1012.5 |
| 20260906102029 | 22 | 0 | 0.0 | 9.7 | 0.00 | 0.08 | 0.00 | 90 | 1012.4 |
| 20260906101548 | 22 | 0 | 0.0 | 9.7 | 0.00 | 0.08 | 0.00 | 90 | 1012.4 |
| 20260906101031 | 22 | 0 | 1.6 | 9.7 | 0.00 | 0.08 | 0.00 | 90 | 1012.5 |
| 20260906100529 | 22 | 0 | 0.0 | 6.4 | 0.00 | 0.08 | 0.00 | 90 | 1012.4 |
| 20260906100058 | 22 | 0 | 0.0 | 6.4 | 0.00 | 0.08 | 0.00 | 90 | 1012.2 |
| 20260906095528 | 22 | 0 | 0.0 | 6.4 | 0.00 | 0.08 | 0.00 | 90 | 1012.2 |
| 20260906095028 | 22 | 0 | 0.0 | 6.4 | 0.00 | 0.08 | 0.00 | 89 | 1012.2 |
| 20260906094554 | 22 | 97 | 0.0 | 8.0 | 0.00 | 0.08 | 0.00 | 89 | 1012.0 |
| 20260906094031 | 22 | 0 | 0.0 | 8.0 | 0.00 | 0.08 | 0.00 | 89 | 1012.1 |
| 20260906093529 | 22 | 356 | 0.0 | 8.0 | 0.00 | 0.08 | 0.00 | 89 | 1012.1 |
| 20260906093048 | 22 | 0 | 0.0 | 3.2 | 0.00 | 0.08 | 0.00 | 90 | 1012.1 |
| 20260906092529 | 22 | 0 | 0.0 | 1.6 | 0.00 | 0.08 | 0.00 | 90 | 1012.0 |
| 20260906092029 | 22 | 0 | 0.0 | 1.6 | 0.00 | 0.08 | 0.00 | 91 | 1012.0 |
| 20260906091557 | 22 | 0 | 0.0 | 1.6 | 0.00 | 0.08 | 0.00 | 90 | 1011.9 |
| 20260906091031 | 22 | 0 | 0.0 | 1.6 | 0.00 | 0.08 | 0.00 | 90 | 1012.0 |
| 20260906090529 | 22 | 0 | 0.0 | 0.0 | 0.00 | 0.08 | 0.00 | 91 | 1012.0 |
| 20260906090056 | 22 | 0 | 0.0 | 0.0 | 0.00 | 0.08 | 0.00 | 90 | 1011.9 |
| 20260906085528 | 22 | 0 | 0.0 | 0.0 | 0.00 | 0.08 | 0.00 | 90 | 1011.8 |
| 20260906085028 | 22 | 0 | 0.0 | 0.0 | 0.00 | 0.08 | 0.00 | 90 | 1011.8 |
| 20260906084553 | 22 | 0 | 0.0 | 0.0 | 0.00 | 0.08 | 0.00 | 90 | 1011.9 |
| 20260906084030 | 23 | 0 | 0.0 | 0.0 | 0.00 | 0.08 | 0.00 | 90 | 1011.9 |
| 20260906083528 | 23 | 0 | 0.0 | 0.0 | 0.00 | 0.08 | 0.00 | 90 | 1012.0 |
| 20260906083047 | 23 | 0 | 0.0 | 1.6 | 0.00 | 0.08 | 0.00 | 90 | 1012.1 |
| 20260906082529 | 23 | 0 | 0.0 | 1.6 | 0.00 | 0.08 | 0.00 | 89 | 1012.0 |
| 20260906082029 | 23 | 0 | 0.0 | 1.6 | 0.00 | 0.08 | 0.00 | 90 | 1012.1 |
| 20260906081549 | 23 | 0 | 0.0 | 1.6 | 0.00 | 0.08 | 0.00 | 89 | 1011.9 |
| 20260906081028 | 23 | 0 | 0.0 | 1.6 | 0.00 | 0.08 | 0.00 | 89 | 1011.9 |
| 20260906080530 | 23 | 0 | 0.0 | 0.0 | 0.00 | 0.08 | 0.00 | 89 | 1011.9 |
| 20260906080106 | 23 | 0 | 0.0 | 0.0 | 0.00 | 0.08 | 0.00 | 89 | 1011.9 |
| 20260906075526 | 23 | 0 | 0.0 | 0.0 | 0.00 | 0.08 | 0.00 | 89 | 1011.8 |
| 20260906075030 | 23 | 0 | 0.0 | 1.6 | 0.00 | 0.08 | 0.00 | 89 | 1011.8 |
| 20260906074557 | 23 | 0 | 0.0 | 1.6 | 0.00 | 0.08 | 0.00 | 88 | 1011.9 |
| 20260906074028 | 23 | 0 | 0.0 | 1.6 | 0.00 | 0.08 | 0.00 | 88 | 1011.8 |
| 20260906073531 | 23 | 0 | 0.0 | 1.6 | 0.00 | 0.08 | 0.00 | 88 | 1011.9 |
| 20260906073051 | 23 | 0 | 0.0 | 1.6 | 0.00 | 0.08 | 0.00 | 87 | 1011.9 |
| 20260906072530 | 23 | 0 | 0.0 | 1.6 | 0.00 | 0.08 | 0.00 | 87 | 1011.9 |
| 20260906072028 | 23 | 0 | 0.0 | 1.6 | 0.00 | 0.08 | 0.00 | 87 | 1011.9 |
| 20260906071548 | 23 | 0 | 0.0 | 1.6 | 0.00 | 0.08 | 0.00 | 86 | 1011.9 |
| 20260906071029 | 23 | 0 | 0.0 | 3.2 | 0.00 | 0.08 | 0.00 | 86 | 1011.9 |
| 20260906070532 | 24 | 0 | 0.0 | 4.8 | 0.00 | 0.08 | 0.00 | 86 | 1011.8 |
| 20260906070059 | 24 | 162 | 0.0 | 4.8 | 0.00 | 0.08 | 0.00 | 86 | 1011.9 |
| 20260906065529 | 24 | 0 | 0.0 | 4.8 | 0.00 | 0.08 | 0.00 | 86 | 1012.0 |
| 20260906065029 | 24 | 180 | 1.6 | 4.8 | 0.00 | 0.08 | 0.00 | 85 | 1012.1 |
| 20260906064556 | 24 | 0 | 0.0 | 1.6 | 0.00 | 0.08 | 0.00 | 85 | 1012.0 |
| 20260906064031 | 24 | 0 | 0.0 | 1.6 | 0.00 | 0.08 | 0.00 | 85 | 1012.1 |
| 20260906063528 | 24 | 162 | 0.0 | 1.6 | 0.00 | 0.08 | 0.00 | 85 | 1012.2 |
| 20260906063051 | 24 | 0 | 0.0 | 0.0 | 0.00 | 0.08 | 0.00 | 85 | 1012.3 |
| 20260906062529 | 24 | 0 | 0.0 | 3.2 | 0.00 | 0.08 | 0.00 | 85 | 1012.2 |
| 20260906062031 | 24 | 0 | 0.0 | 3.2 | 0.00 | 0.08 | 0.00 | 84 | 1012.2 |
| 20260906061550 | 24 | 0 | 0.0 | 1.6 | 0.00 | 0.08 | 0.00 | 84 | 1012.2 |
| 20260906061027 | 24 | 0 | 0.0 | 1.6 | 0.00 | 0.08 | 0.00 | 84 | 1012.1 |
| 20260906060529 | 24 | 0 | 0.0 | 3.2 | 0.00 | 0.08 | 0.00 | 84 | 1012.1 |
| 20260906060147 | 24 | 0 | 0.0 | 3.2 | 0.00 | 0.08 | 0.00 | 84 | 1012.1 |
| 20260906055528 | 25 | 117 | 0.0 | 3.2 | 0.00 | 0.08 | 0.00 | 83 | 1012.1 |
| 20260906055028 | 25 | 118 | 0.0 | 3.2 | 0.00 | 0.08 | 0.00 | 83 | 1012.2 |
| 20260906054601 | 25 | 0 | 0.0 | 1.6 | 0.00 | 0.08 | 0.00 | 83 | 1012.1 |
| 20260906054030 | 25 | 0 | 0.0 | 1.6 | 0.00 | 0.08 | 0.00 | 83 | 1012.1 |
| 20260906053530 | 25 | 171 | 0.0 | 1.6 | 0.00 | 0.08 | 0.00 | 83 | 1012.0 |
| 20260906053050 | 25 | 0 | 0.0 | 1.6 | 0.00 | 0.08 | 0.00 | 84 | 1012.0 |
| 20260906052535 | 25 | 0 | 0.0 | 1.6 | 0.00 | 0.08 | 0.00 | 84 | 1012.1 |
| 20260906052030 | 25 | 0 | 0.0 | 1.6 | 0.00 | 0.08 | 0.00 | 84 | 1012.0 |
| 20260906051546 | 25 | 0 | 0.0 | 1.6 | 0.00 | 0.08 | 0.00 | 83 | 1012.1 |
| 20260906051028 | 25 | 0 | 0.0 | 3.2 | 0.00 | 0.08 | 0.00 | 83 | 1012.1 |
| 20260906050527 | 25 | 0 | 0.0 | 3.2 | 0.00 | 0.08 | 0.00 | 83 | 1012.0 |
| 20260906050055 | 25 | 165 | 0.0 | 1.6 | 0.00 | 0.08 | 0.00 | 83 | 1012.0 |
| 20260906045531 | 25 | 0 | 0.0 | 1.6 | 0.00 | 0.08 | 0.00 | 83 | 1011.9 |
| 20260906045031 | 25 | 0 | 0.0 | 0.0 | 0.00 | 0.08 | 0.00 | 82 | 1011.8 |
| 20260906044554 | 25 | 0 | 0.0 | 0.0 | 0.00 | 0.08 | 0.00 | 81 | 1011.9 |
| 20260906044030 | 25 | 0 | 0.0 | 1.6 | 0.00 | 0.08 | 0.00 | 81 | 1011.9 |
| 20260906043526 | 25 | 0 | 0.0 | 3.2 | 0.00 | 0.08 | 0.00 | 81 | 1011.9 |
| 20260906043050 | 25 | 0 | 0.0 | 3.2 | 0.00 | 0.08 | 0.00 | 81 | 1012.0 |
| 20260906042525 | 26 | 191 | 0.0 | 1.6 | 0.00 | 0.08 | 0.00 | 80 | 1012.0 |
| 20260906042026 | 26 | 0 | 0.0 | 3.2 | 0.00 | 0.08 | 0.00 | 80 | 1011.9 |
| 20260906041551 | 26 | 0 | 0.0 | 8.0 | 0.00 | 0.08 | 0.00 | 80 | 1011.8 |
| 20260906041029 | 26 | 0 | 0.0 | 8.0 | 0.00 | 0.08 | 0.00 | 80 | 1011.8 |
| 20260906040528 | 26 | 152 | 0.0 | 4.8 | 0.00 | 0.08 | 0.00 | 80 | 1011.9 |
| 20260906040047 | 26 | 0 | 0.0 | 1.6 | 0.00 | 0.08 | 0.00 | 80 | 1011.9 |
| 20260906035533 | 26 | 0 | 0.0 | 1.6 | 0.00 | 0.08 | 0.08 | 80 | 1011.7 |
| 20260906035029 | 26 | 0 | 0.0 | 1.6 | 0.00 | 0.08 | 0.08 | 80 | 1011.5 |
| 20260906034559 | 26 | 0 | 0.0 | 0.0 | 0.00 | 0.08 | 0.08 | 80 | 1011.6 |
| 20260906034028 | 26 | 192 | 0.0 | 3.2 | 0.00 | 0.08 | 0.08 | 79 | 1011.5 |
| 20260906033527 | 26 | 0 | 0.0 | 3.2 | 0.00 | 0.08 | 0.08 | 79 | 1011.6 |
| 20260906033050 | 25 | 0 | 0.0 | 3.2 | 0.00 | 0.08 | 0.08 | 79 | 1011.5 |
| 20260906032527 | 25 | 0 | 0.0 | 0.0 | 0.00 | 0.08 | 0.08 | 80 | 1011.5 |
| 20260906032031 | 25 | 0 | 0.0 | 0.0 | 0.00 | 0.08 | 0.08 | 80 | 1011.5 |
| 20260906031608 | 25 | 0 | 0.0 | 0.0 | 0.00 | 0.08 | 0.08 | 80 | 1011.5 |
| 20260906031029 | 25 | 0 | 0.0 | 0.0 | 0.00 | 0.08 | 0.08 | 80 | 1011.4 |
| 20260906030528 | 25 | 0 | 0.0 | 0.0 | 0.00 | 0.08 | 0.08 | 80 | 1011.5 |
| 20260906030058 | 25 | 0 | 0.0 | 0.0 | 0.00 | 0.08 | 0.08 | 79 | 1011.6 |
| 20260906025531 | 25 | 0 | 0.0 | 0.0 | 0.00 | 0.08 | 0.08 | 79 | 1011.6 |
| 20260906025031 | 25 | 0 | 0.0 | 0.0 | 0.00 | 0.08 | 0.08 | 79 | 1011.7 |
| 20260906024556 | 26 | 0 | 0.0 | 0.0 | 0.00 | 0.08 | 0.08 | 78 | 1011.6 |
| 20260906024026 | 26 | 0 | 0.0 | 0.0 | 0.00 | 0.08 | 0.08 | 77 | 1011.6 |
| 20260906023526 | 26 | 0 | 0.0 | 0.0 | 0.00 | 0.08 | 0.08 | 77 | 1011.6 |
| 20260906023105 | 26 | 0 | 0.0 | 0.0 | 0.00 | 0.08 | 0.08 | 77 | 1011.6 |
| 20260906022528 | 26 | 0 | 0.0 | 0.0 | 0.00 | 0.08 | 0.08 | 76 | 1011.5 |
| 20260906022029 | 26 | 0 | 0.0 | 0.0 | 0.00 | 0.08 | 0.08 | 76 | 1011.5 |
| 20260906021546 | 26 | 0 | 0.0 | 0.0 | 0.00 | 0.08 | 0.08 | 76 | 1011.4 |
| 20260906021028 | 26 | 0 | 0.0 | 0.0 | 0.00 | 0.08 | 0.08 | 75 | 1011.4 |
| 20260906020531 | 26 | 0 | 0.0 | 0.0 | 0.00 | 0.08 | 0.08 | 74 | 1011.3 |
| 20260906020100 | 26 | 0 | 0.0 | 0.0 | 0.00 | 0.08 | 0.08 | 74 | 1011.2 |
| 20260906015528 | 26 | 0 | 0.0 | 0.0 | 0.00 | 0.08 | 0.08 | 75 | 1011.1 |
| 20260906015028 | 27 | 0 | 0.0 | 0.0 | 0.00 | 0.08 | 0.08 | 73 | 1011.0 |
| 20260906014551 | 27 | 0 | 0.0 | 0.0 | 0.00 | 0.08 | 0.08 | 73 | 1011.0 |
| 20260906014029 | 27 | 0 | 0.0 | 0.0 | 0.00 | 0.08 | 0.08 | 73 | 1011.0 |
| 20260906013532 | 27 | 0 | 0.0 | 3.2 | 0.00 | 0.08 | 0.08 | 72 | 1010.9 |
| 20260906013047 | 27 | 0 | 0.0 | 3.2 | 0.00 | 0.08 | 0.08 | 72 | 1010.8 |
| 20260906012529 | 27 | 152 | 0.0 | 3.2 | 0.00 | 0.08 | 0.08 | 71 | 1010.7 |
| 20260906012029 | 27 | 0 | 0.0 | 3.2 | 0.00 | 0.08 | 0.08 | 71 | 1010.8 |
| 20260906011605 | 27 | 0 | 0.0 | 3.2 | 0.00 | 0.08 | 0.08 | 70 | 1010.7 |
| 20260906011032 | 27 | 0 | 0.0 | 4.8 | 0.00 | 0.08 | 0.08 | 71 | 1010.6 |
| 20260906010529 | 27 | 188 | 0.0 | 4.8 | 0.00 | 0.08 | 0.08 | 70 | 1010.5 |
| 20260906010055 | 27 | 0 | 1.6 | 8.0 | 0.00 | 0.08 | 0.08 | 69 | 1010.5 |
| 20260906005531 | 27 | 181 | 3.2 | 8.0 | 0.00 | 0.08 | 0.08 | 69 | 1010.5 |
| 20260906005029 | 27 | 194 | 1.6 | 4.8 | 0.00 | 0.08 | 0.08 | 69 | 1010.6 |
| 20260906004601 | 27 | 146 | 0.0 | 6.4 | 0.00 | 0.08 | 0.08 | 68 | 1010.5 |
| 20260906004031 | 27 | 150 | 0.0 | 6.4 | 0.00 | 0.08 | 0.08 | 68 | 1010.4 |
| 20260906003529 | 27 | 168 | 1.6 | 6.4 | 0.00 | 0.08 | 0.08 | 67 | 1010.4 |
| 20260906003056 | 27 | 146 | 1.6 | 9.7 | 0.00 | 0.08 | 0.08 | 66 | 1010.6 |
| 20260906002529 | 27 | 166 | 3.2 | 11.3 | 0.00 | 0.08 | 0.08 | 65 | 1010.7 |
| 20260906002031 | 28 | 146 | 3.2 | 14.5 | 0.00 | 0.08 | 0.08 | 64 | 1010.8 |
| 20260906001554 | 28 | 176 | 4.8 | 14.5 | 0.00 | 0.08 | 0.08 | 65 | 1011.0 |
| 20260906001031 | 28 | 162 | 4.8 | 9.7 | 0.00 | 0.08 | 0.08 | 64 | 1011.0 |
| 20260906000531 | 28 | 179 | 3.2 | 8.0 | 0.00 | 0.08 | 0.08 | 63 | 1011.1 |
| 20260906000100 | 28 | 167 | 3.2 | 6.4 | 0.00 | 0.08 | 0.08 | 63 | 1011.2 |
| 20260905235530 | 28 | 192 | 3.2 | 8.0 | 0.00 | 0.08 | 0.08 | 64 | 1011.3 |
| 20260905235033 | 28 | 186 | 1.6 | 8.0 | 0.00 | 0.08 | 0.08 | 64 | 1011.4 |
| 20260905234554 | 28 | 179 | 1.6 | 6.4 | 0.00 | 0.08 | 0.08 | 64 | 1011.4 |
| 20260905234032 | 28 | 155 | 0.0 | 4.8 | 0.00 | 0.08 | 0.08 | 65 | 1011.3 |
| 20260905233530 | 28 | 155 | 0.0 | 11.3 | 0.00 | 0.08 | 0.08 | 66 | 1011.2 |
| 20260905233103 | 28 | 0 | 0.0 | 11.3 | 0.00 | 0.08 | 0.08 | 65 | 1011.3 |
| 20260905232529 | 28 | 131 | 4.8 | 12.9 | 0.00 | 0.08 | 0.08 | 64 | 1011.3 |
| 20260905232034 | 28 | 152 | 6.4 | 16.1 | 0.00 | 0.08 | 0.08 | 64 | 1011.2 |
| 20260905231603 | 29 | 177 | 6.4 | 16.1 | 0.00 | 0.08 | 0.08 | 63 | 1011.2 |
| 20260905231031 | 30 | 161 | 8.0 | 16.1 | 0.00 | 0.08 | 0.08 | 61 | 1011.1 |
| 20260905230531 | 31 | 198 | 3.2 | 8.0 | 0.00 | 0.08 | 0.08 | 63 | 1011.1 |
| 20260905230048 | 31 | 180 | 0.0 | 6.4 | 0.00 | 0.08 | 0.08 | 62 | 1011.0 |
| 20260905225531 | 32 | 179 | 1.6 | 8.0 | 0.00 | 0.08 | 0.08 | 61 | 1010.9 |
| 20260905225032 | 32 | 164 | 1.6 | 8.0 | 0.00 | 0.08 | 0.08 | 59 | 1010.8 |
| 20260905224558 | 32 | 179 | 3.2 | 8.0 | 0.00 | 0.08 | 0.08 | 57 | 1010.8 |
| 20260905224034 | 33 | 0 | 0.0 | 6.4 | 0.00 | 0.08 | 0.08 | 52 | 1010.8 |
| 20260905223529 | 33 | 49 | 1.6 | 11.3 | 0.00 | 0.08 | 0.08 | 53 | 1010.7 |
| 20260905223056 | 33 | 93 | 3.2 | 11.3 | 0.00 | 0.08 | 0.08 | 53 | 1010.6 |
| 20260905222532 | 33 | 63 | 0.0 | 3.2 | 0.00 | 0.08 | 0.08 | 54 | 1010.6 |
| 20260905222033 | 33 | 84 | 0.0 | 3.2 | 0.00 | 0.08 | 0.08 | 55 | 1010.6 |
| 20260905221602 | 33 | 0 | 0.0 | 3.2 | 0.00 | 0.08 | 0.08 | 55 | 1010.5 |
| 20260905221032 | 33 | 70 | 0.0 | 3.2 | 0.00 | 0.08 | 0.08 | 54 | 1010.5 |
| 20260905220531 | 34 | 72 | 0.0 | 4.8 | 0.00 | 0.08 | 0.08 | 54 | 1010.5 |
| 20260905220101 | 34 | 0 | 0.0 | 4.8 | 0.00 | 0.08 | 0.08 | 53 | 1010.6 |
| 20260905215534 | 34 | 0 | 0.0 | 8.0 | 0.00 | 0.08 | 0.08 | 53 | 1010.6 |
| 20260905215028 | 34 | 13 | 1.6 | 8.0 | 0.00 | 0.08 | 0.08 | 53 | 1010.7 |
| 20260905214604 | 33 | 21 | 4.8 | 8.0 | 0.00 | 0.08 | 0.08 | 53 | 1010.7 |
| 20260905214029 | 34 | 347 | 1.6 | 8.0 | 0.00 | 0.08 | 0.08 | 52 | 1010.8 |
| 20260905213532 | 35 | 258 | 1.6 | 8.0 | 0.00 | 0.08 | 0.08 | 51 | 1010.8 |
| 20260905213056 | 35 | 51 | 1.6 | 9.7 | 0.00 | 0.08 | 0.08 | 51 | 1010.8 |
| 20260905212531 | 35 | 355 | 3.2 | 9.7 | 0.00 | 0.08 | 0.08 | 50 | 1010.7 |
| 20260905212028 | 35 | 333 | 0.0 | 6.4 | 0.00 | 0.08 | 0.08 | 49 | 1010.8 |
| 20260905211600 | 35 | 4 | 0.0 | 9.7 | 0.00 | 0.08 | 0.08 | 50 | 1010.8 |
| 20260905211028 | 35 | 48 | 3.2 | 9.7 | 0.00 | 0.08 | 0.08 | 50 | 1010.7 |
| 20260905210527 | 35 | 10 | 0.0 | 6.4 | 0.00 | 0.08 | 0.08 | 49 | 1010.7 |
| 20260905210107 | 35 | 0 | 0.0 | 6.4 | 0.00 | 0.08 | 0.08 | 48 | 1010.8 |
| 20260905205533 | 35 | 360 | 0.0 | 6.4 | 0.00 | 0.08 | 0.08 | 47 | 1010.9 |
| 20260905205029 | 35 | 53 | 0.0 | 11.3 | 0.00 | 0.08 | 0.08 | 49 | 1011.0 |
| 20260905204556 | 34 | 37 | 3.2 | 11.3 | 0.00 | 0.08 | 0.08 | 50 | 1011.0 |
| 20260905204031 | 34 | 40 | 4.8 | 11.3 | 0.00 | 0.08 | 0.08 | 49 | 1011.2 |
| 20260905203531 | 35 | 189 | 0.0 | 11.3 | 0.00 | 0.08 | 0.08 | 49 | 1011.1 |
| 20260905203058 | 34 | 352 | 1.6 | 14.5 | 0.00 | 0.08 | 0.08 | 50 | 1011.3 |
| 20260905202532 | 34 | 351 | 6.4 | 14.5 | 0.00 | 0.08 | 0.08 | 50 | 1011.3 |
| 20260905202030 | 34 | 0 | 1.6 | 11.3 | 0.00 | 0.08 | 0.08 | 50 | 1011.5 |
| 20260905201546 | 33 | 0 | 4.8 | 12.9 | 0.00 | 0.08 | 0.08 | 50 | 1011.4 |
| 20260905201028 | 34 | 34 | 0.0 | 12.9 | 0.00 | 0.08 | 0.08 | 50 | 1011.5 |
| 20260905200530 | 34 | 339 | 0.0 | 14.5 | 0.00 | 0.08 | 0.08 | 50 | 1011.6 |
| 20260905200127 | 33 | 10 | 8.0 | 14.5 | 0.00 | 0.08 | 0.08 | 51 | 1011.7 |
| 20260905195528 | 33 | 8 | 8.0 | 11.3 | 0.00 | 0.08 | 0.08 | 51 | 1011.7 |
| 20260905195031 | 34 | 349 | 0.0 | 12.9 | 0.00 | 0.08 | 0.08 | 50 | 1011.7 |
| 20260905194552 | 33 | 302 | 1.6 | 14.5 | 0.00 | 0.08 | 0.08 | 51 | 1011.8 |
| 20260905194032 | 33 | 349 | 4.8 | 14.5 | 0.00 | 0.08 | 0.08 | 51 | 1012.0 |
| 20260905193530 | 34 | 6 | 1.6 | 9.7 | 0.00 | 0.08 | 0.08 | 51 | 1012.1 |
| 20260905193047 | 33 | 0 | 1.6 | 11.3 | 0.00 | 0.08 | 0.08 | 51 | 1012.1 |
| 20260905192532 | 33 | 0 | 4.8 | 11.3 | 0.00 | 0.08 | 0.08 | 51 | 1012.2 |
| 20260905192028 | 35 | 0 | 0.0 | 6.4 | 0.00 | 0.08 | 0.08 | 50 | 1012.2 |
| 20260905191546 | 34 | 0 | 0.0 | 6.4 | 0.00 | 0.08 | 0.08 | 51 | 1012.3 |
| 20260905191029 | 34 | 357 | 0.0 | 3.2 | 0.00 | 0.08 | 0.08 | 51 | 1012.3 |
| 20260905190529 | 34 | 18 | 0.0 | 3.2 | 0.00 | 0.08 | 0.08 | 53 | 1012.4 |
| 20260905190100 | 34 | 43 | 1.6 | 8.0 | 0.00 | 0.08 | 0.08 | 51 | 1012.4 |
| 20260905185530 | 35 | 195 | 1.6 | 8.0 | 0.00 | 0.08 | 0.08 | 52 | 1012.5 |
| 20260905185031 | 34 | 0 | 0.0 | 6.4 | 0.00 | 0.08 | 0.08 | 51 | 1012.6 |
| 20260905184601 | 33 | 166 | 0.0 | 8.0 | 0.00 | 0.08 | 0.08 | 52 | 1012.7 |
| 20260905184028 | 33 | 354 | 3.2 | 8.0 | 0.00 | 0.08 | 0.08 | 53 | 1012.8 |
| 20260905183528 | 33 | 292 | 0.0 | 6.4 | 0.00 | 0.08 | 0.08 | 51 | 1012.9 |
| 20260905183051 | 33 | 0 | 3.2 | 6.4 | 0.00 | 0.08 | 0.08 | 53 | 1013.0 |
| 20260905182531 | 33 | 147 | 1.6 | 4.8 | 0.00 | 0.08 | 0.08 | 52 | 1013.0 |
| 20260905182029 | 33 | 115 | 0.0 | 8.0 | 0.00 | 0.08 | 0.08 | 53 | 1013.1 |
| 20260905181548 | 33 | 0 | 3.2 | 8.0 | 0.00 | 0.08 | 0.08 | 51 | 1013.1 |
| 20260905181029 | 33 | 160 | 1.6 | 8.0 | 0.00 | 0.08 | 0.08 | 52 | 1013.2 |
| 20260905180531 | 33 | 179 | 1.6 | 8.0 | 0.00 | 0.08 | 0.08 | 52 | 1013.2 |
| 20260905180112 | 33 | 155 | 1.6 | 8.0 | 0.00 | 0.08 | 0.08 | 51 | 1013.3 |
| 20260905175529 | 33 | 231 | 3.2 | 8.0 | 0.00 | 0.08 | 0.08 | 52 | 1013.3 |
| 20260905175029 | 33 | 0 | 0.0 | 4.8 | 0.00 | 0.08 | 0.08 | 52 | 1013.3 |
| 20260905174554 | 33 | 116 | 0.0 | 6.4 | 0.00 | 0.08 | 0.08 | 52 | 1013.3 |
| 20260905174031 | 33 | 184 | 1.6 | 8.0 | 0.00 | 0.08 | 0.08 | 53 | 1013.3 |
| 20260905173528 | 32 | 0 | 3.2 | 8.0 | 0.00 | 0.08 | 0.08 | 53 | 1013.3 |
| 20260905173121 | 32 | 190 | 1.6 | 9.7 | 0.00 | 0.08 | 0.08 | 52 | 1013.3 |
| 20260905172528 | 32 | 158 | 4.8 | 9.7 | 0.00 | 0.08 | 0.08 | 54 | 1013.4 |
| 20260905172030 | 32 | 154 | 1.6 | 9.7 | 0.00 | 0.08 | 0.08 | 54 | 1013.5 |
| 20260905171558 | 32 | 162 | 3.2 | 9.7 | 0.00 | 0.08 | 0.08 | 54 | 1013.5 |
| 20260905171028 | 32 | 167 | 4.8 | 8.0 | 0.00 | 0.08 | 0.08 | 54 | 1013.5 |
| 20260905170529 | 31 | 0 | 3.2 | 6.4 | 0.00 | 0.08 | 0.08 | 55 | 1013.6 |
| 20260905165535 | 31 | 90 | 1.6 | 9.7 | 0.00 | 0.08 | 0.08 | 56 | 1013.8 |
| 20260905165028 | 31 | 158 | 4.8 | 9.7 | 0.00 | 0.08 | 0.08 | 55 | 1014.0 |
| 20260905164558 | 31 | 223 | 3.2 | 9.7 | 0.00 | 0.08 | 0.08 | 56 | 1014.1 |
| 20260905164029 | 31 | 128 | 0.0 | 14.5 | 0.00 | 0.08 | 0.08 | 58 | 1014.2 |
| 20260905163528 | 31 | 172 | 4.8 | 14.5 | 0.00 | 0.08 | 0.08 | 56 | 1014.2 |
| 20260905163051 | 30 | 156 | 3.2 | 11.3 | 0.00 | 0.08 | 0.08 | 58 | 1014.1 |
| 20260905162529 | 30 | 139 | 6.4 | 11.3 | 0.00 | 0.08 | 0.08 | 58 | 1014.3 |
| 20260905162028 | 30 | 155 | 4.8 | 11.3 | 0.00 | 0.08 | 0.08 | 57 | 1014.3 |
| 20260905161559 | 30 | 160 | 1.6 | 11.3 | 0.00 | 0.08 | 0.08 | 60 | 1014.2 |
| 20260905161031 | 30 | 191 | 3.2 | 11.3 | 0.00 | 0.08 | 0.08 | 60 | 1014.1 |
| 20260905160529 | 30 | 141 | 3.2 | 8.0 | 0.00 | 0.08 | 0.08 | 63 | 1014.1 |
| 20260905160100 | 30 | 156 | 0.0 | 8.0 | 0.00 | 0.08 | 0.08 | 63 | 1014.3 |
| 20260905155534 | 29 | 184 | 3.2 | 12.9 | 0.00 | 0.08 | 0.08 | 64 | 1014.3 |
| 20260905155028 | 29 | 171 | 4.8 | 12.9 | 0.00 | 0.08 | 0.08 | 66 | 1014.3 |
| 20260905154552 | 29 | 198 | 1.6 | 11.3 | 0.00 | 0.08 | 0.08 | 66 | 1014.4 |
| 20260905154033 | 28 | 171 | 4.8 | 11.3 | 0.00 | 0.08 | 0.08 | 67 | 1014.5 |
| 20260905153531 | 28 | 243 | 4.8 | 11.3 | 0.00 | 0.08 | 0.08 | 68 | 1014.5 |
| 20260905153051 | 28 | 199 | 4.8 | 16.1 | 0.00 | 0.08 | 0.08 | 69 | 1014.4 |
| 20260905152530 | 27 | 186 | 6.4 | 16.1 | 0.00 | 0.08 | 0.08 | 70 | 1014.5 |
| 20260905152031 | 27 | 180 | 4.8 | 12.9 | 0.00 | 0.08 | 0.08 | 71 | 1014.5 |
| 20260905151559 | 27 | 173 | 4.8 | 12.9 | 0.00 | 0.08 | 0.08 | 73 | 1014.4 |
| 20260905151031 | 27 | 172 | 3.2 | 11.3 | 0.00 | 0.08 | 0.08 | 70 | 1014.5 |
| 20260905150532 | 27 | 193 | 6.4 | 12.9 | 0.00 | 0.08 | 0.08 | 71 | 1014.4 |
| 20260905150053 | 27 | 172 | 6.4 | 14.5 | 0.00 | 0.08 | 0.08 | 72 | 1014.5 |
| 20260905145531 | 27 | 189 | 3.2 | 14.5 | 0.00 | 0.08 | 0.08 | 73 | 1014.7 |
| 20260905145031 | 26 | 144 | 4.8 | 16.1 | 0.00 | 0.08 | 0.08 | 75 | 1014.8 |
| 20260905144559 | 26 | 159 | 8.0 | 16.1 | 0.00 | 0.08 | 0.08 | 76 | 1014.6 |
| 20260905144031 | 26 | 170 | 6.4 | 16.1 | 0.00 | 0.08 | 0.08 | 76 | 1014.7 |
| 20260905143528 | 26 | 128 | 6.4 | 12.9 | 0.00 | 0.08 | 0.08 | 77 | 1014.8 |
| 20260905143102 | 26 | 140 | 3.2 | 16.1 | 0.00 | 0.08 | 0.08 | 80 | 1014.9 |
| 20260905142533 | 25 | 143 | 4.8 | 16.1 | 0.03 | 0.08 | 0.08 | 81 | 1014.7 |
| 20260905142028 | 25 | 138 | 4.8 | 16.1 | 0.05 | 0.08 | 0.08 | 80 | 1014.7 |
| 20260905141558 | 25 | 0 | 3.2 | 12.9 | 0.05 | 0.08 | 0.08 | 84 | 1014.9 |
| 20260905141029 | 25 | 115 | 3.2 | 8.0 | 0.05 | 0.08 | 0.08 | 85 | 1014.8 |
| 20260905140531 | 24 | 155 | 3.2 | 12.9 | 0.05 | 0.08 | 0.08 | 86 | 1014.8 |
| 20260905135527 | 23 | 191 | 3.2 | 11.3 | 0.05 | 0.08 | 0.08 | 87 | 1015.1 |
| 20260905135029 | 23 | 0 | 3.2 | 12.9 | 0.05 | 0.08 | 0.08 | 87 | 1015.1 |
| 20260905134559 | 23 | 157 | 4.8 | 12.9 | 0.05 | 0.08 | 0.08 | 87 | 1015.2 |
| 20260905134031 | 23 | 157 | 1.6 | 6.4 | 0.05 | 0.08 | 0.08 | 87 | 1015.1 |
| 20260905133530 | 23 | 145 | 0.0 | 11.3 | 0.05 | 0.08 | 0.08 | 88 | 1015.5 |
| 20260905133058 | 23 | 0 | 1.6 | 11.3 | 0.05 | 0.08 | 0.08 | 87 | 1015.8 |
| 20260905132530 | 23 | 102 | 1.6 | 8.0 | 0.03 | 0.05 | 0.05 | 86 | 1015.6 |
| 20260905132028 | 24 | 124 | 0.0 | 8.0 | 0.00 | 0.03 | 0.03 | 86 | 1015.7 |
| 20260905131557 | 23 | 0 | 1.6 | 8.0 | 0.00 | 0.03 | 0.03 | 86 | 1015.7 |
| 20260905131027 | 23 | 158 | 0.0 | 8.0 | 0.00 | 0.03 | 0.03 | 87 | 1015.4 |
| 20260905130529 | 23 | 31 | 0.0 | 16.1 | 0.00 | 0.03 | 0.03 | 87 | 1015.3 |
| 20260905130058 | 23 | 20 | 1.6 | 16.1 | 0.00 | 0.03 | 0.03 | 88 | 1015.2 |
| 20260905125530 | 23 | 110 | 3.2 | 12.9 | 0.00 | 0.03 | 0.03 | 88 | 1015.1 |
| 20260905125027 | 23 | 123 | 0.0 | 11.3 | 0.00 | 0.03 | 0.03 | 89 | 1015.4 |
| 20260905124600 | 23 | 120 | 3.2 | 11.3 | 0.03 | 0.03 | 0.03 | 89 | 1015.1 |
| 20260905124034 | 23 | 192 | 1.6 | 8.0 | 0.03 | 0.03 | 0.03 | 90 | 1015.2 |
| 20260905123527 | 23 | 117 | 0.0 | 8.0 | 0.03 | 0.03 | 0.03 | 90 | 1014.4 |
| 20260905123052 | 23 | 137 | 1.6 | 8.0 | 0.03 | 0.03 | 0.03 | 89 | 1014.2 |
| 20260905122528 | 23 | 158 | 1.6 | 4.8 | 0.03 | 0.03 | 0.03 | 89 | 1014.3 |
| 20260905122028 | 23 | 155 | 1.6 | 4.8 | 0.03 | 0.03 | 0.03 | 89 | 1014.5 |
| 20260905121600 | 23 | 0 | 0.0 | 1.6 | 0.03 | 0.03 | 0.03 | 89 | 1014.7 |
| 20260905121030 | 23 | 0 | 0.0 | 8.0 | 0.03 | 0.03 | 0.03 | 89 | 1014.4 |
| 20260905120529 | 23 | 0 | 1.6 | 8.0 | 0.03 | 0.03 | 0.03 | 88 | 1014.5 |
| 20260905120109 | 23 | 177 | 3.2 | 11.3 | 0.03 | 0.03 | 0.03 | 87 | 1014.2 |
| 20260905115527 | 23 | 0 | 0.0 | 11.3 | 0.03 | 0.03 | 0.03 | 87 | 1014.5 |
| 20260905115031 | 24 | 0 | 3.2 | 11.3 | 0.03 | 0.03 | 0.03 | 86 | 1014.3 |
| 20260905114607 | 25 | 157 | 3.2 | 8.0 | 0.00 | 0.00 | 0.00 | 83 | 1014.1 |
| 20260905114027 | 25 | 160 | 0.0 | 4.8 | 0.00 | 0.00 | 0.00 | 82 | 1014.0 |
| 20260905113533 | 25 | 0 | 0.0 | 4.8 | 0.00 | 0.00 | 0.00 | 82 | 1013.8 |
| 20260905113058 | 25 | 181 | 1.6 | 8.0 | 0.00 | 0.00 | 0.00 | 82 | 1013.8 |
| 20260905112530 | 25 | 146 | 0.0 | 8.0 | 0.00 | 0.00 | 0.00 | 83 | 1013.9 |
| 20260905112030 | 25 | 130 | 1.6 | 8.0 | 0.00 | 0.00 | 0.00 | 83 | 1013.9 |
| 20260905111633 | 25 | 0 | 0.0 | 4.8 | 0.00 | 0.00 | 0.00 | 84 | 1013.9 |
| 20260905111030 | 25 | 0 | 1.6 | 4.8 | 0.00 | 0.00 | 0.00 | 85 | 1013.7 |
| 20260905110529 | 25 | 0 | 0.0 | 8.0 | 0.00 | 0.00 | 0.00 | 86 | 1013.9 |
| 20260905110056 | 25 | 145 | 1.6 | 8.0 | 0.00 | 0.00 | 0.00 | 87 | 1013.8 |